Flag for Guatemala Weather past 2 weeks in Escuintla, Guatemala

Now
59 °F

Broken clouds.


Feels Like: 58 °F
Forecast: 69 / 91 °F
Wind: 7 mph from Northeast

Location: Guatemala Aeropuertola Aurora

Current Time: Dec 19, 2014 at 8:02:22 AM

Latest Report: Dec 19, 2014 at 7:00 AM


Visibility: 4 mi

Pressure: 30.30 "Hg

Humidity: 94%

Dew point: 57 °F

Location of EscuintlaLocation

Historic Weather in Escuintla — Graph

°F

Escuintla temperature yesterday

Maximum temperature yesterday: 73 °F (at 3:00 PM)
Minimum temperature yesterday: 55 °F (at 1:00 AM)
Average temperature yesterday: 62 °F

Past Weeks' High & Low Weather Summary

 TemperatureHumidityPressure
High84 °F (Dec 9, 12:00 PM)100% (Dec 15, 4:00 AM)30.42 "Hg (Dec 15, 4:00 AM)
Low54 °F (Dec 11, 3:00 AM)35% (Dec 9, 12:00 PM)30.18 "Hg (Dec 8, 4:00 PM)
Average62 °F77%30.31 "Hg
* Reported Dec 4 7:00 AM — Dec 19 7:00 AM, Escuintla, Weather by CustomWeather, © 2014

Note: Actual official high and low records may vary slightly from our data, if they occured in-between our weather recording intervals... More about our weather records

Advertising

Escuintla weather history for previous 24 hours

 ConditionsComfort  
Time TempWeatherWind HumidityBarometerVisibility
7:00 AM
Dec 19
59 °FBroken clouds.7 mph94%30.30 "Hg4 mi
6:00 AM61 °FPartly cloudy.7 mph83%30.27 "Hg5 mi
5:00 AM59 °FPartly cloudy.7 mph88%30.24 "HgN/A
4:00 AM61 °FPartly cloudy.7 mph83%30.24 "HgN/A
3:00 AM61 °FPartly cloudy.9 mph83%30.24 "HgN/A
2:00 AM61 °FPartly cloudy.7 mph88%30.24 "HgN/A
1:00 AM61 °FOvercast.7 mph88%30.27 "HgN/A
12:00 AM61 °FOvercast.7 mph88%30.33 "HgN/A
11:00 PM
Dec 18
61 °FOvercast.9 mph88%30.33 "Hg5 mi
10:00 PM61 °FPassing clouds.12 mph88%30.33 "HgN/A
9:00 PM61 °FPassing clouds.9 mph88%30.30 "HgN/A
8:00 PM63 °FPassing clouds.12 mph83%30.30 "HgN/A
7:00 PM63 °FClear.9 mph83%30.27 "Hg10 mi
6:00 PM64 °FClear.9 mph78%30.24 "Hg10 mi
5:00 PM68 °FPassing clouds.12 mph73%30.24 "HgN/A
4:00 PM72 °FPassing clouds.12 mph65%30.21 "HgN/A
3:00 PM73 °FPassing clouds.14 mph61%30.21 "HgN/A
2:00 PM72 °FPassing clouds.12 mph65%30.24 "HgN/A
1:00 PM70 °FPassing clouds.12 mph64%30.27 "HgN/A
12:00 PM66 °FPassing clouds.14 mph68%30.33 "HgN/A
11:00 AM64 °FScattered clouds.14 mph73%30.36 "HgN/A
10:00 AM59 °FBroken clouds.14 mph82%30.36 "Hg4 mi
9:00 AM55 °FFog.12 mph94%30.36 "Hg2 mi
8:00 AM55 °FFog.14 mph94%30.36 "Hg1 mi
Weather by CustomWeather, © 2014

See weather overviewHow to use our weather pages